User: anonymous   Login
Location: eljas
(40.1958°N, 6.8661°W)
Time: 11:49:07
(UTC+02:00)
Language:

Okean O Rocket - Orbit

View from above orbital plane
View from above orbital plane
View from above satellite
View from above satellite

Ground track
Ground track

The orbit data is extracted from the following two-line orbital elements,

1 25861U 99039B   17114.90543939 +.00000133 +00000-0 +25571-4 0  9999
2 25861 098.1002 085.8729 0014372 251.8121 164.7694 14.78404261957791
Epoch (UTC): 24 April 2017 21:43:49
Eccentricity: 0.0014372
inclination: 98.1002°
perigee height: 624 km
apogee height: 644 km
right ascension of ascending node: 85.8729°
argument of perigee: 251.8121°
revolutions per day: 14.78404261
mean anomaly at epoch: 164.7694°
orbit number at epoch: 95779

The dashed part of the orbit path shows where the satellite is in the earth's shadow,  

DLR